Regional Weather Roundup
Issued by NWS Little Rock, AR

Home | Current Version | Previous Version | Graphics & Text | Print | Product List | Glossary On
Versions: 1 2 3 4 5 6 7 8 9 10 11 12 13 14 15 16 17 18 19 20 21 22 23 24 25 26 27 28 29 30 31 32
000
ASUS44 KLZK 270005
RWRLZK

WEATHER ROUNDUP FOR ARKANSAS
NATIONAL WEATHER SERVICE LITTLE ROCK AR
600 PM CST SUN FEB 26 2017

NOTE: "FAIR" INDICATES FEW OR NO CLOUDS BELOW 12,000 FEET WITH NO
SIGNIFICANT WEATHER AND/OR OBSTRUCTIONS TO VISIBILITY.

ARZ001-003-010-029-270100-
NORTHWEST ARKANSAS

CITY           SKY/WX    TMP DP  RH WIND       PRES   REMARKS
FAYETTEVILLE   CLOUDY    49  28  44 S3        29.96R
6HR MIN TEMP:  48; 6HR MAX TEMP:  52;

FORT SMITH     CLOUDY    52  32  46 NE7       29.96R
6HR MIN TEMP:  52; 6HR MAX TEMP:  58;

HARRISON       CLOUDY    47  26  44 E3        29.99R
6HR MIN TEMP:  47; 6HR MAX TEMP:  51; 6HR PCP: TRACE;

BENTONVILLE    CLOUDY    48  27  43 NE3       29.97R
6HR MIN TEMP:  45; 6HR MAX TEMP:  52;

ROGERS         CLOUDY    46  29  51 E7        29.97R
6HR MIN TEMP:  44; 6HR MAX TEMP:  48;

SILOAM SPGS    CLOUDY    50  27  40 S8        29.95R
6HR MIN TEMP:  46; 6HR MAX TEMP:  52;

HIGHFILL       CLOUDY    50  28  42 SE6       29.95R
6HR MIN TEMP:  46; 6HR MAX TEMP:  51;

SPRINGDALE     CLOUDY    50  28  43 E6        29.97R
$$

ARZ004-005-016-270100-
NORTH CENTRAL ARKANSAS

CITY           SKY/WX    TMP DP  RH WIND       PRES   REMARKS
BATESVILLE     CLOUDY    50  28  43 E9        30.03F
6HR MIN TEMP:  50; 6HR MAX TEMP:  57;

FLIPPIN        CLOUDY    50  25  37 CALM      29.98S
6HR MIN TEMP:  48; 6HR MAX TEMP:  52;

MTN HOME       CLOUDY    48  26  42 E5        30.00S
6HR MIN TEMP:  47; 6HR MAX TEMP:  50;

$$

ARZ040-041-270100-
WEST CENTRAL ARKANSAS

CITY           SKY/WX    TMP DP  RH WIND       PRES   REMARKS
MENA           CLOUDY    55  36  47 CALM      29.97R
MOUNT IDA      CLOUDY    53  36  52 CALM      29.95R
6HR MIN TEMP:  52; 6HR MAX TEMP:  59; 6HR PCP: TRACE;

$$

ARZ009-017-025-026-028-270100-
NORTHEAST ARKANSAS

CITY           SKY/WX    TMP DP  RH WIND       PRES   REMARKS
CORNING        LGT RAIN  50  32  50 E7        30.05F
JONESBORO      LGT RAIN  52  33  48 SE9       30.06R
6HR MIN TEMP:  49; 6HR MAX TEMP:  56; 6HR PCP: TRACE;

NEWPORT        LGT RAIN  50  34  54 SE6       30.05F
6HR MIN TEMP:  50; 6HR MAX TEMP:  57;

WALNUT RIDGE   CLOUDY    52  28  40 SE6       30.07R
6HR MIN TEMP:  50; 6HR MAX TEMP:  54;

BLYTHEVILLE    CLOUDY    53  30  41 E6        30.07S
6HR MIN TEMP:  51; 6HR MAX TEMP:  58;

$$

ARZ022-023-033-042-044-270100-
CENTRAL ARKANSAS

CITY           SKY/WX    TMP DP  RH WIND       PRES   REMARKS
LITTLE ROCK    TSTM      55  35  47 CALM      30.01R
6HR MIN TEMP:  53; 6HR MAX TEMP:  59; 6HR PCP: TRACE;

N LITTLE ROCK    N/A     54  38  55 SE8       30.01F
6HR MIN TEMP:  51; 6HR MAX TEMP:  57;

JACKSONVILLE   LGT RAIN  53  41  65 SE3       29.99R
6HR MIN TEMP:  53; 6HR MAX TEMP:  58; 6HR PCP: TRACE;

SEARCY         LGT RAIN  51  39  63 NE3       30.05S
6HR MIN TEMP:  51; 6HR MAX TEMP:  56;

HOT SPRINGS    LGT RAIN  51  48  89 E3        29.99R
6HR MIN TEMP:  50; 6HR MAX TEMP:  61; 6HR PCP:  0.05;

RUSSELLVILLE   CLOUDY    51  33  50 E6        29.99R
6HR MIN TEMP:  51; 6HR MAX TEMP:  55; 6HR PCP: TRACE;

CLINTON        CLOUDY    52  32  46 E5        30.01S
$$

ARZ036-270100-
EAST ARKANSAS

CITY           SKY/WX    TMP DP  RH WIND       PRES   REMARKS
WEST MEMPHIS   CLOUDY    57  29  34 CALM      30.03S
6HR MIN TEMP:  53; 6HR MAX TEMP:  59;

$$

ARZ050-053-066-070-073-270100-
SOUTHWEST ARKANSAS

CITY           SKY/WX    TMP DP  RH WIND       PRES   REMARKS
CAMDEN         MOCLDY    59  34  38 CALM      29.96S
TEXARKANA      CLOUDY    54  46  74 SE6       29.94S
6HR MIN TEMP:  51; 6HR MAX TEMP:  61; 6HR PCP:  0.03;

EL DORADO      MOCLDY    63  32  31 SE10      29.96S
6HR MIN TEMP:  59; 6HR MAX TEMP:  67; 6HR PCP: TRACE;

DE QUEEN       CLOUDY    53  44  71 CALM      29.95R
6HR MIN TEMP:  53; 6HR MAX TEMP:  58; 6HR PCP: TRACE;

$$

ARZ056-057-069-270100-
SOUTHEAST ARKANSAS

CITY           SKY/WX    TMP DP  RH WIND       PRES   REMARKS
PINE BLUFF     MOCLDY    56  40  55 SE6       29.98F
6HR MIN TEMP:  54; 6HR MAX TEMP:  62;

STUTTGART      CLOUDY    57  34  41 E3        30.01S
6HR MIN TEMP:  54; 6HR MAX TEMP:  61;

MONTICELLO     CLOUDY    62  31  31 SE5       30.00F
6HR MIN TEMP:  56; 6HR MAX TEMP:  66;


$$






USA.gov is the U.S. government's official web portal to all federal, state and local government web resources and services.